Location: *
(45.5224°N, 122.7471°W)
Time: 02:03:30
(UTC+00:00)

Cosmos 1378 Rocket - Pass Details

Date: 09 April 2020
Orbit: 601 x 627 km, 82.5° (Epoch: 24 May)

Event Time Altitude Azimuth Distance (km) Brightness Sun altitude
Exits shadow 12:18:51 - 187° (S) 2,446 6.3 -13.4°
Reaches altitude 10° 12:20:03 10° 188° (S) 1,959 5.8 -13.3°
Maximum altitude 12:24:24 89° 275° (W) 621 3.5 -12.6°
Drops below altitude 10° 12:28:49 10° 9° (N) 1,992 6.6 -11.9°
Sets 12:31:04 0° 9° (N) 2,907 7.5 -11.5°
